map of KTAN home
Great Circle Mapper logo
KTAN - Airport
Location
City:  Taunton, Massachusetts, United States
Name:Taunton Municipal - King Field
ICAO:KTAN
FAA:TAN

Details
Type:Airport (Airfield)
Use:Public/Civil
Latitude:4152'28"N (41.874467)
Longitude:7100'59"W (-71.016316)
Datum:WGS 1984
Elevation:41 ft (12 m)
Runways:2
Longest:3500 × 75 ft (1067 × 23 m), paved

Time
Time Zone:UTC-5 (DST-4)
Local Time:

Weather
METAR:KTAN 240652Z AUTO 35010KT 5SM BR BKN007 OVC012 10/09 A2964 RMK AO2 RAB28E46 SLP036 P0000 T01000089

Related Locations
Nearby:
Farthest:MGV: 11792 mi / 18977 km
Margaret River, WA, AU

Find:

   beyond  
but within

Other Information
Maps:
NOTAMs:
Links:
Sources:

  
flag of United States
flag of Massachusetts
  

Sectional Chart

Flight Planning
at skyvector.com

Satellite Image

Google Maps Satellite View

 

Copyright © 2004-2014 Karl L. Swartz. All rights reserved.
The Great Circle Mapper name and logo are trademarks of the Great Circle Mapper.
All other trademarks mentioned herein belong to their respective owners.
Please see credits for attibutions and further copyright information.

  Follow gcmap on Facebook Follow gcmap on Twitter

hCard Microformat

Geo Microformat